Dyersburg, TN

8:02 AM CST on December 07, 2019 (GMT -0600)
Dyersburg Municipal

Weather History for KDYR - October, 2019

Change the Weather History Date:

Sunday, October 6, 2019

  Actual Average Record
Temperature  
Mean Temperature 72 °F -  
Max Temperature 82 °F 72 °F 89 °F (2007)
Min Temperature 64 °F 51 °F 39 °F (1999)
Cooling Degree Days 7    
Growing Degree Days 22 (Base 50)    
Moisture  
Dew Point 67 °F    
Average Humidity 85    
Maximum Humidity 100    
Minimum Humidity 65    
Precipitation  
Precipitation 0.61 in - - ()
Sea Level Pressure  
Sea Level Pressure 30.07 in    
Wind  
Wind Speed 6 mph ()    
Max Wind Speed 16 mph    
Max Gust Speed -    
Visibility 7.6 miles    
Events Rain , Thunderstorm    
Averages and records for this station are not official NWS values.
T = Trace of Precipitation, MM = Missing Value Source: Averaged Metar Reports

Daily Weather History Graph

Daily Weather History Graph

Search for Another Location

Airport or City:

Astronomy

Oct. 06, 2019 Rise Set
Actual Time 6:56 AM CDT 6:34 PM CDT
Civil Twilight 6:30 AM CDT 6:59 PM CDT
Nautical Twilight 6:01 AM CDT 7:29 PM CDT
Astronomical Twilight 5:31 AM CDT 7:59 PM CDT
Moon 2:59 PM CDT (10/6) 12:08 AM CDT (10/6)
Length of Visible Light 12h 29m
Length of Day
11h 37m
First Quarter, 60% of the Moon is Illuminated
Oct 6
First Quarter
Oct 13
Full
Oct 21
Last Quarter
Oct 27
New
Nov 4
First Quarter

Hourly Weather History & Observations

Time (CDT) Temp. Heat Index Dew Point Humidity Pressure Visibility Wind Dir Wind Speed Gust Speed Precip Events Conditions
12:56 AM 64.9 °F - 59.0 °F 81% 29.99 in 10.0 mi SE 3.5 mph - N/A   Scattered Clouds
1:56 AM 66.0 °F - 59.0 °F 78% 30.00 in 10.0 mi SSE 3.5 mph - N/A   Clear
2:56 AM 69.1 °F - 57.0 °F 65% 30.00 in 10.0 mi SSE 5.8 mph - N/A   Partly Cloudy
3:56 AM 70.0 °F - 60.1 °F 71% 30.01 in 10.0 mi South 6.9 mph - N/A   Overcast
4:56 AM 69.1 °F - 62.1 °F 78% 30.04 in 10.0 mi WSW 3.5 mph - N/A   Partly Cloudy
5:56 AM 70.0 °F - 64.0 °F 81% 30.05 in 10.0 mi Calm Calm - N/A   Mostly Cloudy
6:56 AM 71.1 °F - 64.9 °F 81% 30.06 in 10.0 mi SE 3.5 mph - N/A   Mostly Cloudy
7:56 AM 70.0 °F - 66.0 °F 87% 30.10 in 10.0 mi Calm Calm - N/A   Mostly Cloudy
8:20 AM 71.6 °F - 66.2 °F 83% 30.09 in 10.0 mi North 3.5 mph - N/A   Overcast
8:56 AM 73.0 °F - 66.0 °F 79% 30.11 in 10.0 mi Calm Calm - N/A   Overcast
9:21 AM 73.4 °F - 66.2 °F 78% 30.10 in 10.0 mi East 3.5 mph - N/A   Mostly Cloudy
9:53 AM 77.0 °F - 68.0 °F 74% 30.10 in 10.0 mi Variable 5.8 mph - N/A   Mostly Cloudy
9:56 AM 77.0 °F - 68.0 °F 74% 30.12 in 10.0 mi North - - N/A   Mostly Cloudy
10:18 AM 77.0 °F - 69.8 °F 78% 30.10 in 10.0 mi South 5.8 mph - N/A   Scattered Clouds
10:40 AM 78.8 °F - 69.8 °F 74% 30.10 in 10.0 mi Variable 5.8 mph - N/A   Mostly Cloudy
10:56 AM 75.0 °F - 69.1 °F 82% 30.11 in 10.0 mi Variable 4.6 mph - 0.00 in Rain Light Rain
11:56 AM 75.9 °F - 70.0 °F 82% 30.10 in 10.0 mi Calm Calm - 0.00 in Rain Light Rain
12:56 PM 78.1 °F - 70.0 °F 76% 30.09 in 10.0 mi SE 6.9 mph - 0.00 in   Partly Cloudy
1:19 PM 78.8 °F - 69.8 °F 74% 30.08 in 10.0 mi Calm Calm - N/A   Mostly Cloudy
1:56 PM 79.0 °F - 70.0 °F 74% 30.07 in 10.0 mi Calm Calm - N/A   Mostly Cloudy
2:07 PM 78.8 °F - 69.8 °F 74% 30.06 in 10.0 mi NW 4.6 mph - N/A   Scattered Clouds
2:54 PM 80.6 °F 83.9 °F 69.8 °F 70% 30.04 in 10.0 mi NNE 5.8 mph - N/A   Mostly Cloudy
2:56 PM 80.1 °F 83.2 °F 70.0 °F 71% 30.05 in 10.0 mi NNE 3.5 mph - N/A   Mostly Cloudy
3:37 PM 80.6 °F 83.9 °F 69.8 °F 70% 30.02 in 10.0 mi NNE 9.2 mph - N/A   Mostly Cloudy
3:56 PM 79.0 °F - 70.0 °F 74% 30.04 in 10.0 mi North 8.1 mph - N/A   Mostly Cloudy
4:46 PM 78.8 °F - 69.8 °F 74% 30.02 in 10.0 mi North 9.2 mph - N/A Thunderstorm Mostly Cloudy
4:56 PM 77.0 °F - 71.1 °F 82% 30.04 in 10.0 mi North 10.4 mph - N/A   Mostly Cloudy
5:36 PM 75.2 °F - 71.6 °F 89% 30.04 in 10.0 mi NNE 8.1 mph - N/A Thunderstorm Scattered Clouds
5:49 PM 73.4 °F - 69.8 °F 88% 30.03 in 9.0 mi NE 11.5 mph - 0.00 in Rain , Thunderstorm Light Thunderstorms and Rain
5:56 PM 72.0 °F - 69.1 °F 91% 30.06 in 10.0 mi NE 10.4 mph - 0.00 in Rain , Thunderstorm Light Thunderstorms and Rain
6:01 PM 71.6 °F - 69.8 °F 94% 30.05 in 8.0 mi Variable 5.8 mph - 0.00 in Rain , Thunderstorm Light Thunderstorms and Rain
6:23 PM 71.6 °F - 68.0 °F 88% 30.06 in 4.0 mi NNE 16.1 mph - 0.00 in Rain Light Rain
6:27 PM 71.6 °F - 68.0 °F 88% 30.06 in 1.8 mi NNE 11.5 mph - 0.00 in Rain Light Rain
6:38 PM 71.6 °F - 66.2 °F 83% 30.07 in 3.0 mi East 6.9 mph - 0.00 in   Overcast
6:56 PM 71.1 °F - 66.9 °F 87% 30.07 in 5.0 mi NNE 6.9 mph - 0.00 in   Overcast
7:10 PM 69.8 °F - 66.2 °F 88% 30.05 in 1.8 mi NNE 9.2 mph - N/A   Mostly Cloudy
7:20 PM 69.8 °F - 66.2 °F 88% 30.05 in 2.0 mi NNE 11.5 mph - N/A   Scattered Clouds
7:34 PM 69.8 °F - 66.2 °F 88% 30.05 in 1.5 mi NNE 15.0 mph - N/A   Partly Cloudy
7:48 PM 69.8 °F - 66.2 °F 88% 30.06 in 2.5 mi NNE 11.5 mph - N/A   Scattered Clouds
7:56 PM 69.1 °F - 66.0 °F 90% 30.08 in 1.8 mi NNE 13.8 mph - N/A   Mostly Cloudy
8:03 PM 69.8 °F - 66.2 °F 88% 30.06 in 1.8 mi NE 15.0 mph - N/A   Mostly Cloudy
8:10 PM 69.8 °F - 66.2 °F 88% 30.07 in 2.5 mi NE 12.7 mph - N/A   Overcast
8:17 PM 69.8 °F - 66.2 °F 88% 30.08 in 4.0 mi NE 6.9 mph - N/A   Overcast
8:56 PM 68.0 °F - 66.0 °F 93% 30.09 in 10.0 mi NE 10.4 mph - 0.00 in Rain Light Rain
8:59 PM 68.0 °F - 66.2 °F 94% 30.07 in 10.0 mi NE 12.7 mph - 0.00 in Rain , Thunderstorm Light Rain
9:29 PM 66.2 °F - 66.2 °F 100% 30.12 in 5.0 mi NNW 9.2 mph - 0.27 in Rain , Thunderstorm Heavy Thunderstorms and Rain
9:56 PM 66.0 °F - 64.9 °F 96% 30.13 in 8.0 mi NNE 12.7 mph - 0.30 in Rain Light Rain
10:14 PM 66.2 °F - 64.4 °F 94% 30.11 in 9.0 mi NNE 16.1 mph - 0.04 in Rain Heavy Rain
10:22 PM 64.4 °F - 64.4 °F 100% 30.12 in 9.0 mi NNW 8.1 mph - 0.07 in Rain , Thunderstorm Rain
10:29 PM 64.4 °F - 64.4 °F 100% 30.12 in 9.0 mi NNE 9.2 mph - 0.09 in Rain , Thunderstorm Rain
10:37 PM 64.4 °F - 64.4 °F 100% 30.11 in 7.0 mi NNE 8.1 mph - 0.13 in Rain Heavy Rain
10:52 PM 64.4 °F - 64.4 °F 100% 30.10 in 4.0 mi East 8.1 mph - 0.17 in Rain Rain
10:56 PM 64.9 °F - 64.9 °F 100% 30.12 in 3.0 mi ENE 9.2 mph - 0.19 in Rain Rain
10:59 PM 64.4 °F - 64.4 °F 100% 30.10 in 2.5 mi ENE 8.1 mph - 0.00 in Rain Rain
11:08 PM 64.4 °F - 64.4 °F 100% 30.09 in 3.0 mi NE 6.9 mph - 0.02 in Rain Rain
11:56 PM 64.9 °F - 64.9 °F 100% 30.12 in 8.0 mi NE 8.1 mph - 0.12 in Rain Rain